Terug naar catalogus

FALCONSAT-10

ActiefWetenschapSSO
NORAD 58291·PAYLOAD·🇺🇸 United States

Gelanceerd Nov 11, 2023 vanaf Vandenberg Space Force Base

Loading…

Volgende Passages (komende 24 uur)

TLE

VersSource: Space-Track

Epoch: Sep 14, 2026, 03:48 UTC

1 58291U 23174AM  26257.15834154  .00003614  00000-0  13348-3 0  9991
2 58291  97.3733 332.3199 0007065 224.5030 135.5643 15.28370149158352

Volg FALCONSAT-10 in realtime met AllMySat

Download on the App Store